Location: Anhauserhöfe
(48.8408°N, 10.6630°E)
Time: 22:03:18
(UTC+00:00)

Daily predictions for brighter satellites

Satellite Brightness Start Highest point End
(mag) Time Altitude Azimuth Time Altitude Azimuth Time Altitude Azimuth
USA 245 4.0 19:58:26 10° SSE 20:02:35 61° ENE 20:07:47 10° N
Cosmos 2228 Rocket 3.2 20:03:12 10° S 20:07:47 84° E 20:12:23 10° N
SL-27 R/B 3.3 20:05:19 10° SW 20:07:57 41° WNW 20:10:40 10° N
BREEZE-M DEB (TANK) 3.5 20:04:26 10° WSW 20:08:03 72° SSE 20:20:50 10° ENE
Cosmos 1862 Rocket 3.6 20:04:19 10° S 20:08:41 65° E 20:13:07 10° NNE
Okean 1-7 3.8 20:07:28 10° SSE 20:11:23 35° E 20:15:18 10° NNE
SL-16 R/B 4.1 20:07:10 10° NW 20:11:43 25° WSW 20:16:15 10° SSW
GENESIS II 4.0 20:08:16 10° SSW 20:11:51 58° SE 20:15:26 10° NE
Cosmos 1315 Rocket 3.4 20:10:24 10° SSE 20:14:06 39° E 20:17:50 10° NNE
Cosmos 1346 Rocket 3.2 20:11:38 10° NNW 20:15:27 60° W 20:19:13 10° S
COSMOS 2455 3.8 20:10:33 10° SSE 20:15:28 27° ESE 20:20:25 10° NE
Cosmos 1242 Rocket 3.6 20:13:48 10° SE 20:15:43 17° E 20:17:38 10° NE
Meteor 1-21 4.3 20:11:26 10° S 20:17:14 81° E 20:23:04 10° NNE
SeaSat 1 2.8 20:13:31 10° SE 20:18:20 59° NE 20:23:11 10° NNW
Ariane Rocket 3.1 20:20:57 10° SSE 20:26:01 74° ENE 20:31:07 10° NNW
NOSS 5 (C) 4.3 20:23:06 10° NW 20:26:17 76° NE 20:29:17 12° SE
IRS-1C Rocket 4.5 20:21:34 10° S 20:26:46 64° WSW 20:32:01 10° NNW
Cosmos 839 Rocket 4.3 20:20:11 10° NW 20:26:59 67° WSW 20:33:03 10° SSE
Cosmos 1707 Rocket 3.9 20:23:43 10° SSW 20:28:07 69° W 20:32:33 10° N
Okean 3 3.4 20:24:23 10° S 20:28:32 84° E 20:32:45 10° N
SL-16 R/B 4.5 20:25:42 10° N 20:29:04 16° NNE 20:32:27 10° ENE
Cosmos 2333 Rocket 3.3 20:24:01 10° NW 20:29:20 39° WSW 20:34:39 10° S
SL-14 R/B 4.3 20:26:19 10° SSW 20:29:58 47° WNW 20:33:41 10° N
Cosmos 1408 4.4 20:30:28 10° ESE 20:31:26 11° E 20:32:24 10° ENE
SL-4 R/B 1.9 20:28:09 10° WNW 20:31:58 69° SSW 20:35:52 11° ESE
Cosmos 2237 Rocket 3.4 20:27:14 10° NNW 20:32:23 34° NE 20:37:28 10° ESE
CZ-4C R/B 4.4 20:30:44 10° N 20:34:46 51° WNW 20:38:42 10° SW
Cosmos 1655 Rocket 4.5 20:28:45 10° SSW 20:35:06 67° WNW 20:41:29 10° N
BlueWalker 3 1.8 20:32:47 10° WSW 20:36:33 90° NNW 20:40:18 10° ENE
Cosmos 968 Rocket 4.3 20:32:02 10° SW 20:37:06 55° WNW 20:42:15 10° NNE
Okean 2 3.4 20:34:50 10° S 20:38:48 64° E 20:42:48 10° NNE
Cosmos 2227 Rocket 4.1 20:37:37 10° ESE 20:39:31 12° E 20:41:24 10° ENE
Cosmos 1733 Rocket 4.2 20:38:07 10° NNW 20:42:18 42° W 20:46:29 10° SSW
Cosmos 2322 3.8 20:39:49 10° NNW 20:45:32 82° WSW 20:50:38 13° SSE
Cosmos 1980 4.5 20:41:27 10° NNW 20:46:52 43° NE 20:51:59 11° ESE
USA 234 3.6 20:42:39 10° ENE 20:48:50 43° SE 20:55:00 10° SSW
Cosmos 2322 Rocket 4.3 20:45:30 10° NW 20:49:34 20° W 20:53:38 10° SW
Cosmos 2297 Rocket 3.0 20:53:48 13° SSE 20:58:00 31° ESE 21:02:54 10° NE
EXPRESS MD2 2.0 20:55:59 10° WNW 20:58:34 78° N 21:00:18 14° E
Cosmos 1908 Rocket 3.6 20:58:59 10° NNW 21:03:20 75° W 21:07:02 14° S
MOS 1 Rocket 4.2 20:59:00 10° S 21:04:12 53° W 21:09:16 10° NNW
Cosmos 2219 Rocket 3.4 21:01:16 10° NW 21:06:22 35° WSW 21:11:27 10° S
NOSS 8 (F) 4.4 21:02:40 10° SW 21:06:39 87° SE 21:09:47 10° NE
Cosmos 1782 Rocket 3.6 21:02:49 10° N 21:07:07 64° ENE 21:10:15 18° SSE
ERS-1 Rocket 4.3 21:04:38 10° SSW 21:09:11 34° W 21:13:47 10° NNW
USA 281 4.0 21:03:53 10° ESE 21:09:56 44° NE 21:16:06 10° NNW
Cosmos 371 Rocket 3.6 21:06:32 14° S 21:10:26 46° ESE 21:15:03 10° NNE
Terra 3.1 21:08:12 10° SSW 21:12:30 35° W 21:16:50 10° NNW
Cosmos 1570 Rocket 4.5 21:07:23 10° NNW 21:12:39 57° WSW 21:17:02 15° S
Cosmos 773 Rocket 4.2 21:08:05 10° NNW 21:13:13 62° ENE 21:17:04 18° SE
Cosmos 1300 Rocket 3.7 21:09:55 10° N 21:14:12 63° ENE 21:17:09 20° SSE
MetOp-A 4.1 21:10:24 16° SSE 21:14:41 88° WSW 21:19:52 10° NNW
Cosmos 1703 4.1 21:21:01 21° SE 21:22:39 31° E 21:25:57 10° NNE
ARIANE 5 R/B 3.3 21:19:54 18° SE 21:22:44 43° ENE 21:26:54 10° N
Spot 1 4.4 21:18:17 10° NNE 21:23:00 85° WNW 21:27:56 10° SSW
GP-B 3.1 21:19:57 10° N 21:24:22 72° E 21:27:24 20° S
Cosmos 2084 Rocket 3.5 21:26:14 10° SSW 21:30:27 55° SE 21:34:32 10° NE
NOSS 0 Rocket 4.1 21:24:39 10° NNW 21:30:52 69° WSW 21:35:24 19° SSE
Cosmos 1953 3.9 21:29:28 10° NNW 21:32:46 28° W 21:36:01 10° SSW
COSMOS 2428 3.4 21:27:35 10° NW 21:33:00 45° WSW 21:37:11 16° S
Cosmos 1455 3.8 21:31:28 10° NNW 21:34:26 26° W 21:37:14 11° SSW
CZ-4C R/B 1.8 21:30:31 10° SW 21:35:01 82° SE 21:40:46 10° NE
SJ 16-02 4.0 21:32:09 10° WSW 21:35:23 20° NW 21:38:37 10° N
BREEZE-M DEB (TANK) 3.9 21:20:00 10° W 21:36:44 85° N 21:40:54 10° E
Cosmos 1745 Rocket 4.1 21:34:05 13° S 21:39:50 88° WNW 21:46:14 10° N
BREEZE-M DEB (TANK) 3.1 21:39:50 33° S 21:40:14 35° SSE 21:43:32 10° E
Cosmos 1777 Rocket 4.3 21:36:58 20° S 21:40:29 52° ESE 21:45:37 10° NNE
Cosmos 304 Rocket 3.7 21:38:33 16° SSW 21:42:19 74° ESE 21:47:06 10° NNE
Nadezhda 1 Rocket 4.2 21:37:27 10° NNW 21:43:40 67° W 21:48:28 17° S
Cosmos 1242 Rocket 4.4 21:45:32 10° WSW 21:47:33 18° WNW 21:49:34 10° NNW
Cosmos 1503 Rocket 4.0 21:45:02 17° SSW 21:49:12 72° ESE 21:54:29 10° NNE
Cosmos 1825 3.6 21:49:46 18° ESE 21:50:29 19° E 21:53:01 10° NE
Cosmos 2151 Rocket 4.3 21:48:03 10° N 21:52:14 41° ENE 21:54:29 23° SE
Cosmos 2098 Rocket 4.0 21:49:04 10° N 21:55:38 71° ENE 21:59:29 23° SSE
SeaSat 1 4.1 21:52:49 13° SSW 21:56:05 24° WSW 22:00:03 10° NW
Okean 2 Rocket 3.8 21:52:55 10° N 21:57:13 43° ENE 21:59:32 24° SE
BREEZE-M R/B 4.3 21:57:09 23° SE 21:58:15 24° SE 22:04:45 10° ENE
H-2A R/B 2.9 21:56:48 25° SE 21:59:01 55° ENE 22:03:07 10° N
MINOTAUR 4 R/B 3.7 21:57:19 10° NNE 22:00:10 51° ESE 22:00:41 44° SE
COSMOS 2455 3.3 21:54:58 10° SW 22:00:58 66° NW 22:07:00 10° NNE
Cosmos 1892 3.6 22:01:05 26° ESE 22:01:57 29° E 22:05:04 10° NNE
CZ-2C R/B 3.6 21:57:55 10° NNE 22:02:22 88° E 22:05:08 23° SSW
Cosmos 1408 3.3 22:02:05 19° SW 22:03:44 36° WNW 22:06:34 10° N
Cosmos 332 Rocket 4.0 22:03:50 26° S 22:06:24 56° ESE 22:11:11 10° NNE
Cosmos 1174 4.3 22:02:21 10° NW 22:07:02 53° WSW 22:08:42 31° S
ALOS 2 3.4 22:04:51 23° SE 22:07:13 43° ENE 22:11:23 10° N
Cosmos 405 Rocket 2.6 22:04:36 10° NNW 22:08:24 88° ENE 22:09:55 35° SSE
SL-4 R/B 3.7 22:07:31 10° W 22:10:15 18° SW 22:10:36 18° SW
Cosmos 2181 Rocket 4.0 22:04:23 10° N 22:10:34 71° E 22:14:19 25° SSE
SL-16 R/B 2.6 22:08:51 10° NNW 22:14:29 57° ENE 22:18:25 20° SE
BlueWalker 3 3.2 22:11:24 10° WNW 22:14:59 42° N 22:18:34 10° ENE
Meteor 2-5 Rocket 3.8 22:11:12 21° S 22:15:16 89° W 22:21:06 10° NNE
CENTAUR R/B 2.6 22:11:56 21° SSW 22:15:39 55° ESE 22:22:26 10° NE
Cosmos 2237 Rocket 2.7 22:11:12 10° NW 22:16:39 50° WSW 22:19:45 24° S
Spot 4 3.8 22:17:54 29° SSE 22:20:25 81° ENE 22:25:17 10° NNW
Cosmos 2227 Rocket 2.2 22:18:48 22° SSW 22:22:30 71° ESE 22:28:09 10° NNE
Cosmos 2221 Rocket 3.7 22:25:50 32° SSE 22:27:42 61° E 22:32:04 10° NNE
USA 234 3.5 22:25:36 10° NE 22:32:09 75° NNW 22:38:39 10° WSW
H-2A R/B 3.6 22:29:08 10° NE 22:32:17 20° E 22:33:24 18° ESE
Sich 1 Rocket 3.5 22:28:40 10° N 22:33:04 86° W 22:34:57 34° S
Cosmos 1354 Rocket 4.3 22:31:07 16° SW 22:35:20 66° WNW 22:40:37 10° NNE
Okean 1 Rocket 3.1 22:34:43 10° N 22:39:07 72° E 22:40:58 34° SSE
Cosmos 2297 Rocket 3.0 22:36:20 10° SW 22:41:49 50° NW 22:47:20 10° NNE
Cosmos 1461 3.5 22:43:12 32° SE 22:43:32 32° ESE 22:47:02 10° NE
Nadezhda 3 Rocket 4.2 22:42:04 10° N 22:48:18 66° ENE 22:51:56 26° SSE
Cosmos 990 Rocket 3.9 22:45:53 29° SSW 22:48:31 77° ESE 22:53:41 10° NNE
USA 281 3.7 22:50:46 25° S 22:54:23 48° WSW 23:00:45 10° NW
Cosmos 2219 3.2 22:51:47 28° S 22:54:47 71° ESE 23:00:24 10° NNE
Cosmos 1680 Rocket 4.4 22:52:36 10° NNW 22:57:34 43° ENE 23:01:20 17° SE
ARIANE 5 R/B 4.3 22:57:21 17° SW 22:59:19 22° W 23:02:45 10° NW
Cosmos 1975 Rocket 4.1 22:59:41 25° SE 23:01:17 33° E 23:05:16 10° NNE
Cosmos 1025 Rocket 3.1 23:00:15 37° SSE 23:01:48 64° E 23:06:04 10° NNE
Cosmos 2184 Rocket 4.0 22:59:56 27° S 23:03:43 87° W 23:10:09 10° N
Cosmos 2263 Rocket 2.3 23:01:07 30° S 23:03:45 60° ESE 23:09:15 10° NE
Orbus 7S? 4.0 23:01:23 10° NW 23:03:58 38° NNE 23:06:51 10° E
Cosmos 1455 Rocket 3.3 23:04:57 10° N 23:09:23 64° ENE 23:11:17 32° SSE
Cosmos 372 Rocket 4.3 23:10:27 31° SSE 23:12:37 51° ESE 23:17:40 10° NNE
Cosmos 1674 Rocket 4.5 23:14:09 23° SW 23:16:24 40° WNW 23:20:29 10° N
Cosmos 292 Rocket 3.7 23:17:32 32° SSW 23:19:46 88° ESE 23:24:37 10° NNE
Cosmos 1844 Rocket 4.4 23:18:48 15° SE 23:21:06 19° E 23:24:52 10° ENE
Cosmos 2154 Rocket 4.0 23:18:32 27° SSW 23:22:11 79° W 23:28:32 10° N
NOSS 3-2 (A) 3.2 23:18:38 22° SW 23:22:14 88° NW 23:28:34 10° NE
CZ-4C R/B 4.1 23:19:44 10° W 23:24:10 29° NNW 23:29:36 10° NE
Cosmos 1825 3.4 23:23:13 22° WSW 23:24:30 28° WNW 23:27:31 10° NNW
PSLV R/B 3.6 23:24:54 10° N 23:29:05 68° WNW 23:30:49 33° SSW
NOSS 3-2 (C) 3.4 23:30:22 31° S 23:32:47 56° ESE 23:38:49 10° NE
Cosmos 1818 3.7 23:28:34 10° NW 23:33:57 57° WSW 23:36:27 30° S
H-2A R/B 4.5 23:32:47 15° WSW 23:34:14 17° W 23:37:04 10° NW
Cosmos 2228 4.2 23:33:03 10° N 23:37:02 35° ENE 23:39:32 19° SE
Meteor 1-21 Rocket 4.2 23:34:06 29° SSW 23:37:11 79° WNW 23:42:51 10° N
Resurs 1-4 Rocket 4.5 23:41:55 10° ENE 23:43:33 11° E 23:45:11 10° ESE
ALOS 2 4.2 23:42:15 19° WSW 23:43:43 23° W 23:47:13 10° NW
In-Cosmos 22 Rocket 4.3 23:41:13 29° S 23:44:20 83° E 23:50:11 10° NNE
Cosmos 1607 4.5 23:39:34 10° NW 23:45:58 60° NE 23:52:12 10° SE
Cosmos 1869 3.3 23:44:11 10° N 23:47:53 67° E 23:49:12 37° SSE
Aureole 1 Rocket 3.8 23:48:39 24° WSW 23:50:53 49° WNW 23:55:50 10° NNE
Cosmos 1937 Rocket 3.5 23:48:31 30° SSW 23:51:13 90° E 23:56:28 10° NNE
BlueWalker 3 2.7 23:49:54 10° WNW 23:53:34 53° NNE 23:57:15 10° E
